This is the latest recevied weather packets stored in our database for station/object I1SXT-13. If no packets are shown the sender has not sent any weather packets the latest 10 day(s).
| Time | Temp. | Humidity | Pressure | Rain* | Wind** | Luminosity | Snow |
|---|---|---|---|---|---|---|---|
| 1778000368 | 18.33° C | 82% | 1012.4 hPa | 0 mm | - | - | - |
| 1777999766 | 18.33° C | 80% | 1011.9 hPa | 0 mm | - | - | - |
| 1777999165 | 18.33° C | 79% | 1011.9 hPa | 0 mm | - | - | - |
| 1777998564 | 18.33° C | 76% | 1012 hPa | 0 mm | - | - | - |
| 1777997970 | 18.89° C | 78% | 1012.2 hPa | 0 mm | - | - | - |
| 1777997665 | 18.33° C | 78% | 1013.3 hPa | 0 mm | - | - | - |
| 1777997368 | 18.33° C | 79% | 1013.1 hPa | 0 mm | - | - | - |
| 1777996767 | 18.33° C | 79% | 1012.8 hPa | 0 mm | - | - | - |
| 1777996470 | 18.89° C | 78% | 1012.3 hPa | 0 mm | - | - | - |
| 1777996166 | 18.89° C | 79% | 1012.8 hPa | 0 mm | - | - | - |
| 1777995869 | 18.89° C | 80% | 1013.9 hPa | 0 mm | - | - | - |
| 1777995565 | 18.89° C | 79% | 1014.1 hPa | 0 mm | - | - | - |
| 1777995268 | 18.33° C | 80% | 1013.3 hPa | 0 mm | - | - | - |
| 1777994963 | 18.33° C | 78% | 1013.7 hPa | 0 mm | - | - | - |
| 1777994666 | 18.33° C | 78% | 1013.1 hPa | 0 mm | - | - | - |
| 1777994368 | 18.89° C | 79% | 1014.5 hPa | 0 mm | - | - | - |
| 1777994064 | 18.89° C | 78% | 1013.3 hPa | 0 mm | - | - | - |
| 1777993767 | 18.89° C | 78% | 1013.5 hPa | 0 mm | - | - | - |
| 1777993470 | 18.89° C | 78% | 1013.3 hPa | 0 mm | - | - | - |
| 1777993166 | 18.33° C | 78% | 1013.6 hPa | 0 mm | - | - | - |
| 1777992869 | 18.89° C | 78% | 1013.1 hPa | 0 mm | - | - | - |
| 1777992564 | 18.89° C | 76% | 1013.9 hPa | 0 mm | - | - | - |
| 1777992267 | 20° C | 74% | 1013.2 hPa | 0 mm | - | - | - |
| 1777991970 | 20° C | 75% | 1013.5 hPa | 0 mm | - | - | - |
| 1777991666 | 19.44° C | 76% | 1014.3 hPa | 0 mm | - | - | - |
* Rain since midnight (hover to see other rain measurements)
** Current wind speed in m/s (hover to see current wind gust speed)